Weather in Mseno

Czech Republic     50°26′22″N   14°37′57″E
temp.,
°C
wind,
m/s
gust,
m/s
humid.,
%
clouds,
%
prec.,
mm/h
press.,
hPa
HPBL,
m
26 july, mon
mon2623:00+19ese1193100 0.8 101019
02:00+18sse2293100 1.1 101133
05:00+16sse11945 0.0 101111
08:00+20ssw1185100 0.0 1012231
11:00+24sw2263100 0.0 1012863
14:00+27sw224945 0.0 10121439
17:00+28wsw224494 0.0 10111703
20:00+20wnw387797 0.0 1011216
27 july, tue
tue2723:00+18sw119589 3.8 101332
02:00+17w009698 4.4 101411
05:00+16w119670 0.0 101418
08:00+19sw11845 0.0 1015182
11:00+25sw225853 0.0 10141032
14:00+27sw354519 0.0 10142182
17:00+27sw4541100 0.0 10132178
20:00+23sw1263100 0.0 101313
28 july, wed
wed2823:00+19wsw007492 0.3 101411
02:00+18ene118881 1.9 101411
05:00+17ne0091100 0.0 101411
08:00+20n1181100 0.0 1014151
11:00+24nnw335263 0.0 10141127
14:00+23wnw445496 0.0 10141330
17:00+19wnw2382100 0.4 1015168
20:00+19w367526 0.4 1014402
29 july, thu
thu2923:00+15ssw22926 0.0 101618
02:00+14ssw11950 0.0 101612
05:00+14s22960 0.0 101623
08:00+18ssw35823 0.0 1016347
11:00+23wsw475818 0.0 10151489
14:00+26wsw584410 0.1 10142136
17:00+26sw57455 0.0 10121996
20:00+22w126744 0.1 101113
30 july, fri
fri3023:00+18s118459 0.3 101111
02:00+17s2295100 0.9 101136
05:00+17sse2698100 0.7 1009189
08:00+18ssw3992100 1.6 1009517
11:00+23wsw6968100 0.3 10091271
14:00+25wsw71043100 0.4 10082016
17:00+25wsw683810 0.0 10082283
20:00+20w36565 0.0 1009139